Theta_e
345 344 347 347 347 347 347 347 347 349 349 349 349 349 349 349 349 348 349 350 349 348 348 348 348 348 348 347 347 347 344 343 342 342 341 340 340 340 340 341 341 340 341 342 342 345 349 349 348 348 347 347 348 348 348 347 347 346 346 345 344 343 344 343 343 341 340 340 342 343 343 343 343 342 343 343 343 342 340 341 341 339 341 344 347
345 346 346 349 347 347 347 348 348 349 349 349 348 348 349 348 349 349 349 349 349 348 348 347 347 347 347 347 347 346 345 341 341 340 340 340 339 339 339 339 339 340 340 340 341 344 347 347 348 347 348 348 347 347 346 345 345 344 343 342 342 342 342 342 342 343 341 340 340 340 340 341 341 341 341 341 341 341 339 340 340 338 339 344 345
348 347 347 349 347 347 347 347 348 348 348 348 348 348 348 348 349 349 348 348 348 347 347 347 347 346 347 346 346 346 343 343 341 339 339 339 339 339 339 338 339 339 340 340 341 342 343 346 347 347 346 345 345 344 344 344 343 342 341 340 341 341 340 341 341 342 342 341 340 341 340 340 340 340 339 339 340 340 339 338 338 339 336 342 343
346 346 346 347 345 347 347 347 347 348 349 348 348 348 348 348 349 348 348 348 348 347 347 346 346 347 346 346 346 346 344 342 341 340 339 339 339 339 339 339 339 339 339 342 342 342 342 345 345 345 344 343 342 343 341 341 341 342 340 339 340 339 340 340 340 342 340 340 339 337 336 334 336 339 339 340 340 339 337 338 338 339 340 340 341
346 347 347 347 348 348 347 347 347 348 349 349 348 349 348 348 349 348 348 348 347 347 346 346 346 346 346 346 346 345 345 342 340 339 339 338 338 338 338 338 338 338 338 341 342 343 344 344 344 344 344 343 343 342 340 340 339 339 339 339 338 338 339 339 340 341 339 339 337 335 332 333 334 337 339 340 338 336 336 337 337 338 338 338 339
346 347 347 346 347 349 345 347 347 347 349 349 349 349 349 348 348 348 347 348 348 347 346 346 346 346 346 345 345 344 344 343 342 340 339 338 338 338 338 338 338 338 338 342 342 347 346 346 345 344 343 342 340 340 340 340 338 338 338 338 339 339 339 339 339 339 339 337 335 332 330 331 332 334 338 338 338 336 336 336 337 337 338 338 338
346 347 347 347 347 348 344 347 347 347 348 349 349 349 348 348 347 347 347 347 347 347 346 345 345 345 345 344 345 344 341 340 340 340 339 338 337 337 337 338 339 339 340 340 346 346 345 345 344 343 342 341 341 341 340 338 337 337 338 338 338 338 338 340 338 338 335 333 331 331 330 331 332 333 338 337 337 336 335 337 336 337 337 337 336
347 347 347 348 348 345 344 347 347 347 347 348 348 348 348 348 347 347 346 347 346 346 346 345 345 345 345 344 344 344 342 340 339 338 338 337 337 336 337 338 338 339 339 341 343 343 342 342 342 342 342 340 339 340 338 336 336 337 337 337 338 338 337 338 336 336 335 330 331 331 330 331 331 332 336 337 338 336 336 335 336 336 336 336 335
345 346 346 348 348 342 344 347 348 347 348 348 348 348 348 347 347 346 346 346 346 346 346 345 345 345 344 344 344 343 340 339 339 338 337 337 337 337 337 337 338 339 340 342 343 342 339 339 341 342 342 341 340 339 338 336 336 336 337 337 337 337 338 337 335 333 330 330 331 330 329 330 331 331 336 336 337 337 335 333 334 335 335 335 334
345 347 347 348 349 340 345 345 348 347 348 348 348 347 347 347 347 346 346 346 346 346 346 345 345 345 344 344 344 342 340 338 338 338 337 337 336 337 337 337 340 340 340 342 342 343 344 342 342 341 341 340 339 337 337 336 336 336 336 336 336 337 339 336 333 331 329 330 329 330 332 334 331 331 335 336 336 336 335 334 335 335 335 334 333
345 347 348 348 349 341 346 347 347 348 347 348 347 347 346 346 346 346 346 347 346 346 346 346 345 344 343 343 342 341 339 339 338 337 337 336 337 336 336 337 337 338 339 340 343 343 343 343 342 341 340 339 337 337 336 336 336 335 335 335 336 337 340 335 332 330 330 329 329 330 332 335 331 331 336 336 337 336 335 335 336 336 336 336 335
345 347 347 349 345 340 345 346 347 347 347 347 347 347 347 346 346 347 347 346 345 345 346 346 344 344 343 342 341 339 338 338 337 337 337 336 336 336 336 337 339 341 341 341 342 342 342 341 340 340 338 337 336 336 335 335 335 335 335 335 336 336 335 334 331 330 331 329 330 330 330 331 332 334 338 339 339 338 338 338 338 338 339 338 338
345 346 347 350 349 339 344 346 346 346 347 347 347 347 347 347 347 346 346 346 345 346 345 345 344 343 343 342 341 338 336 335 337 338 337 336 336 335 335 339 339 339 340 339 339 339 339 339 338 338 337 337 335 334 334 334 334 334 334 334 334 338 335 334 334 334 334 334 334 334 335 335 335 337 337 339 339 339 339 338 338 338 338 338 338
346 346 348 348 349 343 338 341 344 346 346 347 346 347 347 347 347 346 346 346 346 346 346 345 343 343 343 342 340 338 335 335 336 338 337 337 337 336 335 335 336 337 337 336 336 336 337 336 336 336 335 335 334 334 334 334 333 333 332 332 332 334 333 332 333 333 333 333 334 334 335 334 334 336 338 338 339 339 338 337 337 336 338 338 337
344 346 348 349 347 347 340 337 341 343 345 346 347 346 346 347 346 346 346 346 346 345 345 344 343 343 342 342 341 338 335 335 336 336 336 336 336 335 335 335 334 335 335 335 334 333 333 334 334 334 334 334 333 333 333 333 332 332 332 332 333 330 329 330 332 332 332 332 333 333 333 333 335 337 338 338 338 338 337 336 336 335 336 335 335
347 346 349 348 348 347 347 339 334 337 340 343 345 346 346 346 347 346 346 346 346 345 345 344 343 343 342 342 341 338 336 335 336 336 336 336 336 336 334 334 334 334 334 332 332 332 332 333 334 333 333 333 333 332 332 331 331 331 331 331 330 329 326 326 328 329 329 329 329 330 330 332 334 335 336 336 336 336 336 336 337 335 333 333 333
346 347 346 345 349 347 347 346 340 331 334 338 340 341 344 346 346 345 345 346 346 345 345 344 343 342 342 342 340 337 335 335 336 336 336 335 334 334 333 334 334 333 331 330 330 331 332 333 332 332 331 332 331 331 331 330 330 330 330 331 329 327 324 323 326 326 326 328 327 327 327 329 331 332 333 334 334 333 333 334 334 335 333 331 330
346 346 346 346 346 346 346 347 344 345 347 338 333 337 341 342 344 344 344 345 345 345 345 344 343 342 342 340 339 338 336 334 334 334 334 334 334 334 333 333 333 331 329 328 328 330 331 331 330 330 330 330 330 330 329 329 329 328 328 328 327 326 324 323 325 325 326 327 325 327 327 330 331 331 331 331 331 331 332 331 331 331 333 333 332
344 344 345 345 344 345 346 347 345 346 346 344 346 342 333 339 339 342 341 343 344 343 344 342 341 341 340 337 335 333 332 332 333 334 333 332 332 331 333 332 331 329 327 326 327 328 329 330 329 329 329 329 328 328 327 327 326 326 327 326 323 322 321 323 324 324 326 325 326 327 328 330 331 332 333 332 331 330 329 331 333 333 333 333 332
341 342 342 344 345 344 345 346 346 346 346 344 344 345 334 332 336 339 338 340 341 341 340 338 336 335 333 331 329 330 328 329 325 330 329 331 330 329 330 329 329 328 328 327 327 328 329 329 329 328 327 327 326 325 324 324 324 324 325 324 322 320 324 325 325 325 326 327 329 329 330 332 332 334 334 334 333 333 333 333 333 332 332 332 331
338 338 338 340 342 342 343 344 345 345 345 344 344 343 342 329 332 331 333 336 337 337 335 329 327 325 328 325 327 331 331 330 330 329 323 328 322 324 329 330 329 329 328 327 327 327 328 328 327 326 325 323 321 320 320 321 322 323 322 321 319 324 324 324 325 325 325 326 327 329 330 330 331 333 333 333 333 333 333 332 332 332 331 330 328
334 336 337 339 339 340 342 343 343 344 344 345 346 343 342 337 344 342 340 337 331 329 335 341 335 340 325 332 335 331 331 332 330 328 327 326 325 321 325 328 328 327 326 326 326 326 326 326 326 325 324 323 321 320 318 318 318 319 318 317 321 322 323 323 323 323 325 325 327 328 330 330 330 332 333 333 332 332 331 331 331 331 330 330 328
332 334 336 337 338 339 340 342 342 343 343 345 344 346 344 343 345 342 342 334 337 340 342 340 342 341 339 338 337 335 335 333 332 330 328 321 324 320 324 325 326 325 324 324 325 326 325 325 324 322 322 323 321 321 320 319 318 315 315 319 320 321 321 321 321 321 320 323 325 327 329 330 330 332 332 332 331 331 330 329 328 328 329 329 329
333 334 335 337 338 337 339 340 342 342 342 342 343 343 344 342 342 341 341 342 339 340 342 341 340 341 340 339 338 337 335 334 325 324 324 325 323 320 322 323 324 323 323 322 323 323 322 321 321 320 321 318 319 317 317 316 316 316 316 316 318 319 320 320 319 318 318 319 322 325 328 328 330 330 331 330 328 327 326 327 327 325 325 325 327
333 334 335 335 336 337 338 339 340 341 342 342 341 342 343 343 342 343 341 341 340 340 342 340 341 341 340 338 338 337 336 334 332 329 327 325 322 323 324 323 322 321 318 318 317 317 316 317 318 317 317 317 316 315 315 314 313 313 313 313 314 316 318 318 317 317 316 316 317 322 325 326 327 328 328 328 327 326 325 325 325 324 324 323 324
334 332 333 333 334 336 337 337 338 339 340 340 340 341 342 342 342 343 343 342 340 340 341 341 340 341 341 339 337 337 335 333 331 331 329 326 322 321 322 322 321 319 317 315 315 316 317 318 318 317 316 315 314 313 312 312 311 310 309 310 311 312 314 315 316 315 315 315 314 318 322 324 324 326 327 327 326 325 325 326 324 324 323 323 323
332 332 333 333 333 335 335 337 337 338 339 339 339 339 340 343 342 342 342 341 342 341 341 341 342 341 341 338 337 335 334 332 331 332 330 328 325 323 323 322 322 320 318 318 319 320 319 317 316 316 315 313 312 311 310 309 309 307 307 307 308 308 309 312 314 314 314 313 312 315 319 322 322 323 323 324 325 325 325 324 325 325 324 322 320
332 331 332 333 333 333 334 334 335 335 337 337 336 337 338 341 342 341 341 340 341 341 341 340 339 340 340 337 336 336 334 332 331 331 332 330 328 327 324 323 322 322 322 321 320 320 318 316 315 313 311 310 309 308 307 306 306 306 305 305 305 306 306 308 311 312 312 312 311 311 317 318 320 320 321 322 323 323 323 323 324 326 323 320 318
328 330 332 332 332 332 333 333 334 334 335 336 335 335 338 338 340 341 340 336 340 343 342 340 339 339 339 338 338 336 335 334 332 332 332 330 329 328 323 323 324 323 323 322 321 319 316 314 313 312 311 309 307 305 304 303 303 303 302 302 303 303 304 305 308 310 310 310 309 308 312 316 317 318 319 320 320 321 322 323 322 322 320 318 320
328 329 331 331 331 332 332 333 334 334 334 333 333 333 335 336 338 339 341 339 340 340 341 339 339 339 338 338 337 336 335 333 333 333 331 330 329 328 325 324 324 324 323 321 320 318 315 315 314 313 311 309 306 304 303 302 301 301 300 300 300 300 301 302 304 306 308 309 308 307 307 311 315 315 316 317 318 319 319 320 320 320 319 319 319
329 328 331 332 332 331 330 332 334 334 334 333 333 331 333 335 336 338 339 339 340 340 339 339 339 338 338 338 338 337 336 334 333 333 332 331 329 328 327 325 323 323 323 321 319 317 316 315 314 312 310 307 304 303 302 300 300 299 299 299 298 299 299 300 300 302 304 307 307 306 305 306 309 313 314 315 316 316 317 317 318 318 319 319 318
327 328 330 331 331 330 329 330 332 331 330 330 331 331 331 332 336 336 336 337 338 339 339 339 336 339 338 338 338 336 335 335 334 333 332 330 329 327 327 324 323 323 323 321 318 317 316 315 314 311 308 306 303 302 301 299 298 298 298 298 298 298 298 298 298 299 300 302 303 304 304 303 304 306 311 313 315 315 316 316 316 316 316 317 317
327 329 330 330 329 329 328 330 330 330 328 328 328 329 331 331 333 335 335 336 337 338 337 337 337 338 338 338 337 336 335 335 334 333 331 331 329 327 328 325 324 322 321 319 317 316 315 312 310 308 305 304 302 300 301 299 297 297 297 297 297 297 297 297 297 297 297 298 298 299 300 302 302 302 303 308 311 312 314 314 314 315 315 315 315
325 326 328 327 327 328 328 329 328 327 326 326 327 327 329 331 330 333 333 334 335 336 336 337 337 337 337 337 338 336 335 335 334 333 332 331 329 327 327 325 324 322 320 319 317 316 312 309 306 305 304 302 300 299 298 297 296 297 297 297 297 297 297 297 296 296 297 296 296 296 296 297 298 299 300 301 305 309 311 312 312 313 313 313 313
323 324 325 326 324 324 324 323 323 324 324 324 326 327 328 330 330 330 333 332 332 333 335 335 336 336 336 336 336 336 336 335 334 333 331 331 329 327 325 324 323 321 319 318 315 313 310 306 305 303 302 300 299 298 297 296 295 295 295 296 295 296 296 295 296 295 295 295 295 295 295 295 295 296 297 297 298 303 307 309 311 312 312 312 312
321 322 323 323 322 322 321 322 321 321 322 322 323 324 325 327 330 325 330 332 329 330 333 333 333 333 332 333 334 334 335 335 334 333 331 330 327 326 326 323 322 319 317 316 315 310 308 306 305 303 300 299 298 297 296 295 295 295 295 295 295 295 295 295 295 295 295 294 294 294 294 294 294 293 294 292 294 296 302 305 308 308 309 310 310
320 320 320 321 321 320 319 320 319 320 320 321 322 322 322 323 325 327 328 330 328 328 329 331 332 330 330 329 331 331 333 333 332 332 329 327 325 324 323 322 320 317 316 315 315 310 307 305 303 303 302 298 297 296 295 295 295 295 295 295 295 295 294 294 294 294 295 294 293 293 293 293 293 296 293 292 291 292 295 299 301 304 305 307 308
319 320 320 319 319 319 319 318 319 319 319 320 321 322 322 323 325 327 325 327 328 328 326 325 327 329 329 328 328 328 329 331 331 330 328 327 324 319 319 318 317 316 315 313 312 311 307 304 301 302 300 297 295 294 293 294 295 294 294 294 294 294 294 293 293 293 293 293 293 292 292 293 293 293 292 293 293 292 293 294 295 297 300 303 306
318 319 320 319 319 319 318 318 318 319 319 320 321 321 321 322 323 324 323 324 326 327 325 322 323 324 325 325 326 326 327 329 329 328 325 321 319 317 316 316 316 314 313 312 310 310 306 304 301 299 298 297 295 294 294 294 294 294 293 292 293 293 293 293 294 293 292 292 292 292 293 292 292 292 292 292 292 292 292 292 292 291 293 298 303
316 317 318 319 319 319 318 318 317 318 319 319 319 317 317 317 317 318 317 318 320 319 320 323 323 322 322 323 323 325 325 326 325 324 320 319 318 317 315 315 315 314 312 309 308 306 303 301 298 297 295 295 295 295 294 293 292 292 291 291 292 292 292 292 292 292 292 292 292 292 291 291 291 292 291 292 291 291 291 291 291 291 291 293 296
315 316 316 317 318 317 317 316 317 318 318 317 315 314 313 314 316 316 315 317 316 317 318 321 321 320 318 321 321 321 322 322 322 320 317 314 314 314 314 314 314 313 312 310 308 305 302 299 297 296 294 293 293 294 294 293 291 289 290 290 290 291 291 291 291 291 291 292 292 291 291 290 291 290 291 291 291 290 290 290 290 290 290 292 291
313 314 315 316 317 317 316 317 317 317 317 316 315 314 314 315 316 315 317 317 313 313 314 316 319 318 315 316 318 319 319 320 318 318 316 313 313 312 312 312 313 312 311 310 307 302 299 297 296 294 295 293 291 293 293 293 291 288 286 286 287 288 289 289 289 289 291 291 292 291 291 290 289 290 290 289 289 289 289 289 289 289 289 289 290
313 313 315 316 316 316 316 316 317 316 316 316 315 314 315 317 317 317 318 314 314 313 315 314 314 314 312 312 313 315 316 314 315 317 315 313 312 312 311 311 312 311 310 307 305 301 299 297 296 294 293 294 293 294 294 296 291 290 289 286 284 284 286 287 288 288 289 290 290 290 290 290 289 290 291 289 288 288 288 288 288 288 288 288 289
312 312 313 314 315 315 315 316 316 316 315 315 314 315 316 317 317 318 319 316 311 307 308 307 308 309 309 309 309 310 312 312 312 312 313 313 312 311 310 311 312 312 310 307 304 300 298 297 297 296 295 291 292 292 295 298 293 290 286 288 286 286 282 283 284 287 288 288 288 288 289 288 289 289 291 288 288 288 287 288 287 288 287 288 288
310 312 313 313 314 314 315 315 316 315 315 314 314 315 315 310 308 308 308 307 307 307 306 305 305 305 306 305 306 305 308 309 311 310 309 311 313 313 311 310 311 311 309 306 304 302 298 298 298 297 296 294 292 293 294 299 295 295 293 289 285 286 286 286 284 284 286 285 287 288 288 288 288 289 288 288 288 288 288 287 287 287 288 287 288
310 312 313 314 314 314 315 315 315 315 314 314 314 314 311 311 307 306 306 307 306 305 305 306 304 303 304 305 304 304 304 306 307 308 308 307 309 310 309 309 309 309 307 305 301 299 298 298 298 298 298 298 295 293 293 297 298 296 300 299 298 290 289 285 284 281 285 287 287 287 287 288 289 288 288 288 288 287 287 287 287 287 287 287 287
310 312 313 314 314 314 314 314 315 314 314 313 314 311 311 310 309 309 309 308 308 307 308 308 307 306 306 303 301 301 303 302 302 305 306 306 308 305 306 308 308 307 305 304 301 299 298 298 299 298 299 299 298 294 295 295 297 297 299 298 298 296 292 285 284 284 280 283 285 285 285 287 288 288 288 288 288 287 287 287 287 287 286 287 288
311 312 312 313 313 314 314 314 314 313 313 312 312 311 310 310 308 309 310 310 311 309 308 308 309 308 305 302 300 299 299 300 300 301 303 304 304 304 305 305 306 306 304 304 302 301 300 300 299 300 300 299 299 297 296 295 293 294 296 295 294 295 294 295 293 287 285 280 281 285 287 286 287 287 288 287 287 288 287 287 287 287 286 286 286
310 311 312 313 313 313 313 314 313 312 312 312 311 310 310 310 309 309 310 311 313 313 310 309 308 305 302 300 299 297 297 297 297 298 299 301 301 303 305 306 305 305 304 304 303 301 300 301 300 300 300 299 299 300 298 296 295 295 294 294 295 294 293 296 295 294 289 284 282 282 282 285 286 287 287 288 288 288 288 288 287 287 286 287 288
310 312 312 312 313 313 312 312 312 311 311 310 309 309 310 309 309 309 310 311 310 310 311 307 305 303 301 299 298 295 295 295 294 295 295 296 299 301 303 305 305 305 303 305 304 303 303 302 301 301 301 300 301 301 300 299 297 297 295 295 293 293 293 292 293 292 294 291 285 282 282 281 280 284 286 287 287 287 288 287 286 286 288 288 288
310 311 311 311 312 312 312 311 311 311 311 309 309 308 308 308 308 309 310 311 310 309 305 303 302 301 301 298 298 296 295 294 294 294 295 295 296 297 300 301 303 303 303 305 304 304 304 303 302 302 303 302 301 301 301 301 297 298 296 295 294 293 291 289 289 290 290 289 287 284 284 283 283 283 285 287 287 287 287 287 286 286 286 287 288
Wind_Speed
8 9 7 6 3 5 4 6 6 7 8 10 10 8 9 10 10 11 11 13 13 13 12 12 12 13 14 15 16 16 16 16 16 16 15 14 14 13 12 13 14 14 13 15 14 16 19 17 17 18 18 20 21 22 21 22 21 21 21 20 20 20 18 17 17 20 22 23 25 24 23 23 24 24 23 24 24 23 22 22 17 15 14 17 22
11 10 8 7 4 5 4 6 8 8 9 9 9 9 9 9 10 11 11 12 13 13 12 12 12 13 15 16 16 16 16 16 16 16 15 14 14 13 13 13 13 14 14 14 14 15 18 18 18 18 20 20 21 21 20 20 21 20 19 19 19 19 17 16 15 12 14 17 21 23 24 25 25 24 23 23 24 23 21 21 20 15 12 19 21
10 9 8 8 5 4 5 6 8 8 10 10 10 10 10 10 11 11 12 12 12 12 12 11 12 14 15 16 16 16 16 16 16 15 15 15 14 13 13 14 13 14 14 15 14 15 15 18 19 21 20 20 20 20 20 20 20 19 19 19 18 18 17 16 14 12 12 14 14 16 20 24 25 24 24 23 24 24 21 22 23 21 15 23 20
9 8 9 8 3 4 7 5 5 9 10 10 11 10 10 10 11 12 12 12 11 12 12 12 13 14 15 15 16 16 16 16 16 15 15 15 15 13 14 13 13 13 14 15 15 15 16 17 19 20 20 20 19 20 20 20 19 19 18 18 17 16 14 13 12 11 12 12 13 15 13 15 18 24 24 23 24 24 21 23 24 25 26 24 24
8 8 8 9 8 7 5 5 6 8 11 11 11 11 11 11 12 12 12 12 12 12 12 12 13 14 14 15 16 16 16 16 16 15 14 15 14 15 14 14 14 14 14 15 16 16 16 18 19 20 20 19 19 20 20 19 19 18 18 17 16 14 13 11 8 8 12 13 15 14 12 14 13 22 22 24 24 23 22 23 23 25 24 26 25
8 8 8 9 9 7 5 4 8 6 10 10 11 11 10 11 12 11 12 12 12 12 12 12 13 13 14 15 16 16 16 16 16 16 15 14 14 14 14 14 14 14 14 16 14 17 19 20 20 20 20 20 20 20 19 19 18 18 17 16 15 13 12 10 6 3 9 12 14 11 13 14 14 13 22 23 23 22 22 24 24 23 23 26 26
9 7 8 8 8 9 5 5 7 9 9 10 11 11 11 11 11 11 11 11 12 12 12 12 12 13 14 16 16 17 16 16 16 15 15 14 14 14 13 13 14 14 15 16 18 18 19 20 20 19 19 19 19 19 18 17 17 17 16 15 14 12 11 8 10 10 13 10 10 12 12 15 13 11 21 20 22 23 24 23 23 24 24 24 26
8 6 7 7 7 10 6 7 6 7 8 10 10 10 11 11 11 11 11 11 11 11 11 12 12 13 14 16 16 17 16 16 16 15 14 14 15 14 13 12 14 15 15 16 17 18 18 19 18 18 19 19 18 18 18 17 17 17 16 14 13 11 10 8 15 14 13 12 12 11 11 13 14 12 21 21 21 22 23 23 23 24 24 25 19
8 8 8 7 8 10 6 4 8 8 9 9 10 10 10 11 10 11 10 10 11 11 11 11 13 13 14 15 16 16 16 16 15 14 14 14 14 14 14 13 15 16 16 16 16 17 18 18 19 20 20 19 19 18 18 18 18 17 14 14 13 13 11 7 11 16 13 12 14 12 13 14 13 13 18 20 22 22 21 18 19 23 24 21 21
8 8 7 7 8 8 5 2 8 9 10 10 10 10 11 10 11 10 11 10 10 11 12 11 13 14 14 15 16 16 16 15 15 14 13 14 14 13 14 14 15 15 15 15 16 17 19 19 19 20 20 19 19 18 17 18 17 16 15 14 12 10 8 11 15 14 12 14 15 15 13 14 12 12 16 19 20 20 17 16 14 15 17 20 23
9 7 7 7 10 7 6 5 6 6 9 9 10 10 10 10 9 10 10 10 10 11 11 12 13 13 14 14 15 15 15 15 14 14 13 14 14 14 14 14 15 14 14 16 17 18 18 19 20 20 20 19 18 18 17 16 16 15 14 13 13 12 9 14 14 12 13 13 14 12 13 13 11 11 15 18 20 19 15 16 18 19 21 22 22
9 7 7 8 9 7 6 5 4 7 9 9 10 11 11 10 9 10 10 10 10 10 11 12 13 13 14 14 14 14 15 15 14 14 13 14 14 14 14 15 16 18 17 16 17 18 19 20 20 19 19 18 17 16 16 15 15 14 13 12 11 10 12 11 12 11 12 13 13 11 13 13 13 14 20 20 19 20 22 22 21 22 22 22 22
9 8 7 8 8 6 6 5 4 6 8 9 10 10 10 10 10 9 9 9 10 10 11 12 13 13 13 13 13 14 14 14 14 14 13 14 13 13 14 16 15 15 16 15 16 17 17 18 19 18 18 17 16 16 15 15 14 12 12 11 10 9 13 13 12 13 13 12 11 12 13 12 12 17 20 22 22 22 22 23 23 24 25 24 24
10 9 8 8 8 8 7 5 5 6 7 7 9 9 10 10 10 10 10 10 10 10 11 12 13 13 13 13 13 13 14 14 14 14 13 13 14 13 13 14 14 15 14 15 15 16 17 17 17 17 17 16 16 16 15 15 14 13 12 11 10 7 12 12 15 13 13 15 13 14 13 12 13 20 21 22 23 23 22 23 22 24 25 24 26
9 10 8 8 8 8 7 5 4 4 4 5 6 7 9 9 10 10 10 11 10 10 11 12 13 13 13 13 13 14 14 14 14 14 13 13 13 13 14 14 14 14 15 15 16 16 16 16 16 16 16 16 16 16 15 15 15 14 13 13 11 11 10 11 10 12 12 12 12 14 12 11 17 20 20 21 21 22 23 23 23 24 24 25 23
8 9 9 8 9 9 8 6 5 4 3 2 3 6 6 8 8 10 10 11 11 11 11 12 12 13 13 13 13 14 14 14 14 14 14 14 14 14 14 15 15 15 15 15 16 16 16 16 16 16 16 16 16 16 15 15 15 14 14 13 12 13 13 11 9 10 10 10 9 9 10 12 19 21 20 21 21 22 22 24 24 24 23 23 23
8 8 8 9 8 9 8 8 7 5 3 3 2 3 6 5 6 8 8 10 10 11 11 12 12 12 13 14 13 13 13 14 14 14 14 14 14 14 13 15 15 15 15 16 16 17 17 17 17 17 16 16 16 16 16 16 15 14 12 11 13 13 12 12 10 10 10 10 8 9 10 11 18 21 21 21 22 22 22 22 23 24 24 23 23
8 8 7 8 9 8 9 8 7 7 6 5 4 3 4 1 5 7 6 8 9 10 10 11 11 10 11 12 12 12 13 14 14 14 14 14 13 11 13 15 16 15 15 16 16 17 17 17 17 17 17 16 16 16 15 15 15 13 11 10 10 10 11 11 10 10 11 10 11 9 10 13 18 20 21 21 22 22 21 21 21 22 23 24 24
6 7 6 6 8 8 9 8 9 9 8 7 6 5 5 6 3 6 6 8 8 8 9 9 10 10 11 11 11 11 11 11 12 12 12 10 11 12 14 15 15 16 15 16 16 17 17 17 18 17 17 17 17 16 16 15 14 13 10 8 8 11 12 10 11 11 11 10 11 10 8 14 18 20 20 20 20 20 20 21 22 22 23 24 25
4 5 4 5 6 6 6 7 8 9 8 7 5 7 5 6 6 5 6 6 8 9 10 10 11 11 11 12 13 12 11 10 12 11 11 11 11 12 12 14 16 16 16 16 16 16 17 17 17 17 17 17 17 16 15 15 13 12 10 10 8 9 9 10 12 12 10 10 10 10 14 17 19 21 21 22 22 22 22 22 22 22 22 24 26
4 6 4 5 6 6 6 6 7 8 9 8 8 7 5 6 5 5 9 6 8 10 10 11 10 10 11 12 12 11 10 9 9 10 10 9 11 11 12 14 15 15 16 16 16 16 17 17 18 18 18 18 17 16 15 14 13 11 10 10 11 12 10 11 11 10 10 9 11 11 15 15 17 21 21 21 23 23 23 23 23 23 23 25 24
7 7 7 6 6 6 6 8 6 7 8 7 4 7 7 8 8 7 6 5 7 11 10 9 9 9 10 11 9 9 8 7 8 10 9 9 9 11 12 14 15 15 15 16 16 17 18 18 19 18 17 14 11 9 9 10 11 11 11 10 9 10 9 10 11 10 10 10 10 11 15 18 18 21 23 23 23 22 23 23 24 24 24 26 25
10 9 8 9 8 7 7 8 8 7 6 7 6 5 8 6 6 7 7 8 8 10 10 10 10 10 10 9 8 8 8 8 7 7 8 10 9 11 12 13 14 14 15 16 16 16 16 16 15 14 12 9 7 6 6 5 6 9 10 9 7 11 10 10 10 9 8 7 8 11 17 19 21 22 23 23 24 23 24 25 24 25 26 26 26
9 8 9 9 9 8 8 9 9 10 7 6 6 7 6 7 6 6 4 6 7 7 10 10 9 11 10 8 7 7 8 8 12 13 11 9 8 9 12 12 13 13 15 12 14 14 15 15 13 10 7 6 6 6 6 5 6 6 7 8 8 10 10 9 8 8 8 9 7 12 15 19 20 22 23 22 22 21 22 23 23 22 22 23 24
9 10 9 10 11 10 9 9 9 8 9 7 5 6 6 7 7 7 8 7 8 8 6 8 8 10 10 7 6 7 7 8 9 8 7 8 8 9 9 8 8 9 9 9 8 8 8 6 5 5 6 6 7 7 6 6 6 6 7 7 8 8 9 8 8 8 8 9 10 13 13 17 19 20 21 21 21 20 20 19 20 21 22 21 21
8 9 11 10 11 12 10 9 10 10 9 8 7 4 5 7 7 7 8 8 8 8 7 6 8 9 8 6 7 8 8 9 9 8 8 8 8 8 7 8 8 8 7 8 8 7 6 5 5 6 6 6 6 6 6 6 6 6 6 6 7 7 7 8 7 8 8 8 10 17 12 15 18 19 19 20 20 21 20 20 19 20 21 20 22
8 8 8 8 11 13 12 11 10 9 10 7 6 5 5 7 8 7 8 8 7 6 7 8 6 8 7 7 7 8 8 9 8 8 8 8 8 8 7 8 8 7 7 7 7 7 6 6 5 6 6 6 7 7 7 7 7 7 6 7 7 7 7 7 7 7 8 8 11 20 18 14 16 17 17 18 18 19 18 20 20 20 21 22 22
7 9 8 9 10 13 12 9 10 10 7 7 8 6 6 6 7 6 8 7 6 7 8 8 8 7 7 7 7 7 8 9 8 8 8 7 7 7 7 7 7 7 7 7 7 6 7 7 7 7 7 6 7 7 7 7 7 7 7 7 7 7 7 7 7 7 8 8 9 16 15 16 14 15 16 17 17 17 17 17 19 20 22 21 18
10 11 9 9 10 10 11 10 10 12 9 9 9 8 8 7 6 6 8 6 9 6 8 8 9 9 8 7 7 7 8 8 9 9 8 7 7 7 7 7 7 7 7 7 6 7 7 7 7 7 6 6 6 6 6 7 6 6 7 7 7 7 7 7 7 8 8 8 9 13 20 16 16 16 16 16 16 17 17 17 17 20 18 18 19
11 11 10 9 9 11 11 12 13 11 11 10 9 9 8 8 7 6 5 7 9 10 8 6 8 9 9 8 9 9 9 9 9 8 10 7 6 6 6 7 6 6 7 7 6 7 8 8 7 7 7 6 6 6 6 6 7 6 6 6 7 7 6 6 6 7 7 8 9 10 20 19 14 15 15 15 15 16 16 17 17 18 19 19 20
10 11 11 10 9 10 10 11 12 11 10 11 10 10 10 8 8 7 5 5 8 9 8 8 7 9 9 10 10 10 9 9 8 7 9 9 6 7 7 6 6 5 6 7 7 7 8 8 7 7 7 7 6 6 6 7 6 6 6 7 6 6 6 6 6 7 7 7 7 7 10 18 19 14 15 15 16 16 16 16 16 17 18 19 19
11 12 10 9 10 11 10 11 11 9 7 8 7 9 10 10 8 7 7 6 6 8 8 7 6 7 10 10 9 10 9 9 8 8 8 10 9 9 9 7 6 5 5 5 6 7 8 9 8 7 8 7 7 6 6 7 7 6 6 7 6 6 6 6 6 6 6 6 6 6 7 9 16 19 15 15 16 16 16 17 16 16 16 17 18
9 11 10 10 12 11 10 11 10 10 9 10 9 9 10 10 9 7 7 5 6 6 7 7 6 6 8 10 8 9 9 9 9 10 9 10 10 10 7 6 4 5 6 7 7 7 9 9 8 7 7 7 7 6 6 7 7 6 6 6 6 6 6 6 6 6 6 5 5 5 5 6 8 13 19 17 15 16 16 17 17 17 17 17 17
9 9 11 12 10 7 7 7 9 10 10 9 9 9 10 10 9 9 8 6 5 4 5 8 7 6 7 8 7 9 9 7 7 8 9 8 9 9 8 6 6 7 7 7 7 7 8 9 9 8 8 7 7 6 7 7 7 7 6 5 5 5 5 6 5 5 5 5 5 4 4 5 5 6 7 15 17 15 16 17 16 17 16 16 16
9 10 13 13 12 8 7 7 7 9 9 9 9 9 8 9 11 9 9 9 4 4 6 7 7 5 6 6 8 8 9 9 7 7 9 7 8 9 8 6 6 7 7 6 5 7 8 9 8 9 8 7 6 6 7 7 7 7 6 5 5 5 5 5 5 5 5 5 5 5 4 4 4 4 5 5 11 16 16 16 16 17 17 16 16
12 11 11 11 12 11 9 8 9 10 9 9 9 8 8 9 9 9 10 7 6 6 8 8 6 6 5 5 8 8 9 6 9 8 10 8 10 9 8 7 9 7 7 8 4 6 7 8 8 9 10 8 8 7 7 8 7 8 6 5 5 5 5 5 5 6 5 5 5 5 5 5 4 4 5 6 6 10 15 16 17 17 18 18 17
12 12 12 12 12 12 11 11 11 11 10 10 9 8 8 9 10 8 9 6 6 8 7 6 7 7 6 5 6 8 8 8 6 7 8 8 7 8 7 9 9 8 8 7 5 4 7 7 7 6 8 10 8 9 8 8 7 8 7 6 5 5 5 5 5 5 5 5 5 5 5 5 4 5 4 4 5 6 11 16 17 18 18 18 17
13 13 13 13 13 12 11 11 10 10 9 9 9 8 8 9 8 7 6 6 6 8 7 5 5 7 7 6 6 6 8 7 8 7 6 7 8 6 7 9 9 8 6 8 7 3 4 8 9 7 7 8 8 8 9 8 7 7 7 6 5 5 5 5 5 5 5 5 4 5 4 4 4 4 4 4 3 3 4 9 14 17 17 16 17
11 14 13 12 11 11 10 11 10 10 10 9 8 8 7 7 6 5 5 9 7 7 7 6 5 4 5 5 7 6 6 7 7 8 5 6 7 7 6 8 9 8 7 6 7 7 6 7 9 9 6 6 8 7 9 9 8 7 7 7 6 6 5 4 4 5 4 5 4 4 3 4 4 4 4 3 4 3 3 3 3 4 9 17 17
11 12 14 12 12 12 11 10 11 10 9 9 8 7 7 9 10 7 3 6 10 7 3 5 6 4 4 5 6 7 7 6 7 7 7 7 7 8 9 9 9 10 9 8 8 8 7 8 7 10 9 7 6 7 9 10 9 9 8 7 7 6 6 5 5 4 4 3 3 2 3 3 3 3 4 3 3 3 3 3 3 4 5 11 17
11 12 14 14 14 13 12 13 11 11 10 10 9 9 10 9 10 11 10 10 7 6 6 7 7 5 4 5 5 5 6 6 7 7 8 8 7 7 9 9 9 10 11 9 9 8 6 7 8 6 10 10 6 6 7 10 11 8 7 7 6 6 5 4 4 3 3 2 2 2 2 3 3 3 3 3 3 3 3 4 4 4 5 3 6
13 13 14 15 14 13 13 12 10 12 11 11 10 10 10 10 10 11 10 9 6 6 5 5 8 5 4 4 5 5 7 6 7 8 8 8 8 7 8 10 9 8 9 9 11 10 11 9 9 7 3 8 8 8 9 10 5 7 8 6 5 4 3 3 3 3 2 2 1 2 2 2 2 2 2 3 3 4 4 4 4 4 4 4 4
11 13 13 13 13 13 12 12 11 11 11 11 10 10 10 11 10 8 10 6 4 3 2 3 4 5 3 2 2 3 6 6 6 7 8 9 9 10 9 8 9 9 9 9 9 11 10 12 12 10 8 4 5 6 9 6 8 7 7 8 5 4 2 1 1 2 2 1 2 2 2 2 1 1 1 2 3 3 4 4 4 4 4 4 4
10 11 12 14 12 12 12 12 11 11 10 11 9 9 9 11 10 8 9 5 5 4 3 2 2 4 5 3 2 2 3 5 6 6 6 7 8 9 9 10 10 10 9 9 11 11 11 10 8 8 10 10 6 7 6 5 9 12 8 5 7 5 3 7 6 3 2 1 1 2 2 2 1 1 1 2 2 3 3 3 4 4 4 4 3
11 11 12 13 10 13 13 13 10 11 9 10 10 9 8 6 5 5 5 4 4 4 3 3 4 3 3 4 4 2 2 4 5 6 6 7 6 8 10 10 10 10 9 11 10 12 11 12 13 12 11 12 10 6 8 5 9 7 7 7 4 5 6 6 8 3 4 3 1 1 1 2 2 1 1 2 2 2 2 3 3 3 3 3 3
11 11 11 12 12 11 12 12 10 9 10 11 12 9 7 9 6 7 7 6 6 7 8 8 6 5 5 4 3 3 2 3 4 5 5 6 7 8 7 9 9 8 8 10 8 7 8 9 13 12 11 10 13 10 9 5 7 10 2 2 1 2 4 8 8 4 4 2 2 2 2 2 1 2 2 2 2 2 2 2 3 3 2 2 2
11 10 10 11 12 11 11 12 10 8 9 10 12 9 10 10 10 8 6 7 7 4 3 3 5 4 4 5 3 3 3 2 3 5 3 6 6 7 8 9 9 9 8 8 9 12 11 12 11 10 9 8 9 9 11 9 4 6 1 3 1 2 4 11 6 6 4 4 3 4 4 3 3 2 3 3 3 3 3 2 2 2 2 2 1
9 9 10 10 13 12 11 12 9 9 9 10 12 11 12 10 8 9 7 7 7 5 6 5 5 5 5 5 3 3 3 2 3 3 3 5 5 5 8 7 8 9 10 10 11 9 9 8 10 12 10 8 11 9 9 10 11 7 5 3 1 2 6 2 5 6 4 7 6 3 3 4 3 4 4 4 4 3 3 3 2 2 2 1 1
8 9 9 9 10 10 11 11 11 10 9 12 11 12 11 10 9 8 9 7 7 5 7 6 6 6 6 5 5 3 3 2 3 3 3 5 6 6 7 9 8 6 7 8 10 12 14 13 12 9 8 7 8 7 8 9 9 7 7 5 3 3 5 2 3 3 2 4 4 7 6 4 3 4 4 4 3 3 3 3 2 1 1 1 0
7 8 8 8 9 10 11 12 12 10 10 12 11 12 11 9 11 10 11 9 6 4 6 6 6 6 6 7 6 5 4 3 3 3 4 3 5 6 6 10 11 10 8 7 10 11 11 10 12 11 10 10 8 7 9 7 8 6 7 5 5 4 4 2 3 3 1 3 4 9 8 9 7 6 5 5 4 4 3 3 2 2 1 1 0
6 8 8 9 9 10 11 12 12 9 10 12 12 12 11 9 10 11 11 13 9 9 6 5 5 6 6 6 6 5 5 4 4 4 3 4 3 4 5 5 8 9 9 9 10 12 11 11 10 9 10 11 8 8 7 7 8 7 7 6 6 6 5 5 5 4 3 2 4 5 6 7 6 5 6 5 5 4 3 3 3 3 2 2 1
Wind_Direction
143 136 131 99 141 147 130 124 149 128 109 110 103 111 119 115 114 107 101 102 101 100 94 87 80 74 72 69 67 70 67 66 68 69 70 75 78 78 79 83 84 85 87 84 79 84 78 78 77 77 76 71 68 65 64 64 61 59 57 58 60 65 68 66 66 71 70 64 61 60 59 60 60 58 56 54 51 48 46 42 47 49 49 47 49
148 138 141 120 105 130 135 150 141 131 122 117 121 116 117 117 114 109 107 105 102 98 94 88 81 75 72 69 68 71 71 69 69 70 72 76 80 84 87 89 89 88 87 88 86 76 80 76 75 72 70 69 68 67 65 63 61 60 61 62 62 62 61 57 55 58 73 73 72 67 61 59 58 58 58 58 57 56 54 53 51 53 51 50 48
132 139 130 116 88 112 125 139 140 130 124 122 126 129 126 124 113 110 108 106 103 100 97 91 82 76 72 70 71 71 72 73 73 71 73 76 77 81 85 92 93 94 92 91 89 85 80 75 71 69 70 70 69 69 67 65 64 62 62 62 61 60 57 53 49 52 69 74 71 76 70 63 59 58 59 59 59 58 56 57 56 56 55 52 48
133 134 139 115 112 89 125 123 134 137 127 124 123 124 116 116 114 113 112 108 104 100 96 89 81 76 73 73 73 75 75 74 74 75 75 78 81 84 85 90 92 92 97 96 91 90 83 76 73 73 72 71 71 70 69 67 65 62 62 62 60 59 53 48 46 45 58 69 70 66 61 61 61 60 60 59 60 59 58 58 59 60 58 57 55
136 138 139 147 144 110 125 122 142 143 135 127 118 120 125 123 118 114 111 107 102 98 93 88 81 76 75 75 74 75 76 75 75 77 77 78 83 88 91 90 95 99 97 92 91 91 89 84 80 75 72 71 70 70 71 68 65 63 63 63 61 55 48 42 37 53 63 68 69 63 64 65 62 60 61 61 60 60 59 59 60 60 60 59 58
143 141 143 153 146 120 87 122 136 161 128 124 122 118 118 114 112 112 107 104 100 97 95 91 83 78 77 76 76 75 75 74 76 76 79 80 81 86 90 95 95 98 98 97 94 85 89 87 82 79 76 73 72 71 70 70 68 67 66 61 52 44 37 35 36 38 72 70 68 66 66 63 59 56 59 62 62 59 60 61 61 60 60 60 59
148 145 145 147 149 128 111 129 146 149 134 127 125 122 120 117 111 107 105 103 101 99 99 95 86 82 79 78 78 78 78 79 79 79 81 82 82 84 87 90 96 101 103 100 91 90 85 84 83 82 79 77 75 73 73 72 71 70 66 58 49 39 29 22 42 64 63 62 70 68 65 65 63 61 57 59 63 62 60 61 60 60 59 58 59
148 151 150 142 145 121 118 133 146 148 138 132 129 129 124 121 117 112 108 104 104 104 105 100 91 86 81 79 79 79 80 81 83 83 84 88 87 85 88 93 98 95 99 100 92 86 85 83 85 87 86 81 77 75 73 72 73 73 66 59 47 34 34 23 57 50 62 68 68 66 66 71 68 64 61 61 59 60 63 63 63 61 61 59 59
155 161 152 143 121 110 110 115 153 147 149 137 130 131 129 124 119 116 114 111 109 110 107 104 97 90 84 81 82 82 84 84 83 86 86 87 91 95 94 98 100 98 97 93 92 93 91 92 88 85 81 80 77 74 73 74 76 75 63 50 34 22 9 31 80 76 66 69 65 66 68 67 68 67 63 63 64 63 59 59 62 62 64 64 61
158 158 148 150 133 116 114 114 151 154 148 145 136 138 134 125 126 123 117 114 114 118 117 109 101 92 87 85 85 88 89 88 89 91 93 91 93 96 99 99 95 97 96 91 92 94 93 91 88 84 82 80 77 74 74 73 73 68 58 51 38 20 20 51 66 73 76 72 73 69 62 66 68 68 70 67 68 71 66 61 65 64 64 63 63
158 157 157 138 124 120 124 132 151 151 153 149 143 139 140 136 129 126 125 125 123 121 119 112 104 98 93 91 91 92 93 93 95 96 97 98 95 94 96 94 96 95 89 94 96 96 93 87 84 83 82 80 78 77 75 72 68 64 58 49 38 32 30 67 68 70 66 72 74 78 86 80 74 73 75 72 73 75 73 64 61 62 63 64 64
157 156 159 114 118 123 127 120 148 158 156 158 147 144 144 141 137 136 138 132 129 126 120 113 108 104 100 98 98 98 99 99 100 101 99 99 99 101 100 92 88 85 85 87 89 89 88 86 85 84 83 82 80 79 75 70 67 64 60 49 40 40 62 67 79 76 76 74 72 72 65 63 62 63 63 67 71 66 58 60 63 64 62 61 62
160 159 144 124 141 111 118 131 139 153 167 167 154 148 146 145 144 144 143 138 131 126 120 115 112 108 104 103 101 101 103 104 104 104 103 102 102 103 103 96 98 95 88 89 90 89 88 87 87 87 86 85 83 79 74 69 66 62 49 36 24 49 62 65 76 68 68 64 66 62 60 61 65 71 72 71 72 70 68 66 66 67 66 65 62
161 161 154 155 139 114 99 100 138 159 171 174 163 153 152 151 150 151 146 141 133 127 124 122 120 114 110 108 106 104 104 104 105 104 104 102 103 102 102 103 98 89 92 90 90 88 90 92 91 90 90 86 83 79 74 70 65 57 46 36 29 8 95 85 74 75 72 66 64 65 66 65 67 70 70 70 70 69 68 65 64 64 64 63 62
168 159 162 156 145 149 110 91 105 135 149 162 158 166 158 157 156 153 149 142 137 134 130 127 124 120 115 113 110 109 107 105 106 105 103 102 100 101 101 103 103 98 90 85 87 91 95 96 97 98 94 87 83 78 73 69 63 53 41 32 16 19 74 84 80 79 73 69 68 66 63 64 67 67 69 69 68 69 69 67 66 65 63 63 61
166 169 160 161 157 156 163 125 109 115 122 144 161 155 179 163 160 160 151 144 143 140 137 134 130 124 119 114 112 110 108 108 107 106 103 103 102 101 102 99 100 99 97 96 98 97 98 101 99 98 91 87 82 77 73 68 63 53 42 30 25 35 49 73 74 76 73 69 66 66 70 69 64 63 64 67 65 63 64 66 65 65 64 62 61
163 176 172 170 164 164 170 166 148 118 122 166 171 145 181 163 154 157 158 150 146 145 143 140 135 129 121 116 111 106 107 108 108 107 108 108 108 106 107 105 103 101 98 96 94 93 94 95 97 95 92 84 81 77 72 68 62 53 43 31 39 42 55 69 78 76 73 70 69 66 63 62 62 63 63 63 63 65 63 62 64 65 65 65 63
179 175 178 177 174 175 171 173 151 175 175 148 138 121 151 136 152 141 164 155 149 145 146 142 137 126 109 108 109 108 108 108 108 108 108 105 105 106 107 108 105 102 102 99 97 96 96 95 97 98 90 82 78 74 70 66 61 50 39 32 40 46 61 78 79 80 80 76 72 70 69 72 70 69 68 68 69 66 65 63 63 64 66 68 67
178 177 160 189 186 181 178 176 179 185 177 183 185 145 150 162 189 160 171 158 149 142 135 131 129 115 108 103 98 93 91 95 96 97 97 96 98 102 105 107 110 108 106 103 101 99 98 97 99 96 87 83 78 72 68 62 54 47 33 26 29 63 65 70 77 69 65 69 66 61 67 74 71 69 69 71 72 74 72 67 63 62 67 67 69
200 151 145 194 160 181 190 182 193 186 179 187 179 181 140 172 171 169 157 163 154 134 129 129 128 118 109 108 105 102 101 95 100 100 101 107 108 109 109 112 114 113 110 108 105 102 101 99 97 92 87 82 76 70 65 60 50 40 28 31 6 91 77 70 64 74 70 61 63 58 48 64 76 76 73 75 74 73 75 73 71 70 71 70 66
196 197 184 195 179 166 187 183 191 197 197 184 194 168 163 142 148 143 150 183 152 133 123 121 122 121 123 124 130 124 120 119 116 112 107 105 108 112 115 116 116 115 112 110 108 106 104 102 100 96 93 88 80 70 61 58 50 39 36 36 31 69 61 59 71 69 66 71 69 63 61 67 74 76 75 73 75 72 69 70 71 70 69 68 64
193 207 197 194 192 193 188 186 184 203 203 198 191 173 150 190 187 149 157 168 147 130 138 143 143 141 138 152 148 138 141 133 116 120 113 114 110 113 115 116 115 114 113 112 110 109 108 108 107 105 103 103 101 90 77 63 52 47 45 47 63 79 71 66 68 62 61 71 73 78 74 76 77 78 73 71 71 73 75 71 71 70 68 68 68
201 204 200 190 195 185 204 188 183 188 206 205 193 178 163 186 179 171 162 184 158 163 159 155 163 156 165 170 160 159 148 133 139 115 120 104 106 111 112 113 114 111 112 111 110 110 110 110 109 107 106 111 100 97 91 86 75 66 64 61 70 81 81 78 73 63 49 38 61 70 79 78 76 76 76 72 73 73 71 69 67 66 65 64 64
200 198 201 193 194 195 200 203 196 183 184 204 200 195 188 176 190 183 143 177 161 195 169 172 171 168 178 186 171 158 141 106 91 100 106 120 108 101 101 101 102 105 108 106 105 105 107 108 113 126 128 106 103 98 90 79 74 67 69 72 67 84 86 75 67 62 53 33 23 45 74 78 78 76 76 74 73 72 70 68 65 66 65 63 62
198 196 205 198 194 190 187 197 199 190 190 186 206 212 200 192 195 190 187 185 187 185 192 179 177 177 188 194 166 160 134 129 133 143 147 133 134 129 128 128 126 125 128 117 118 123 121 122 133 122 98 103 100 98 95 90 79 74 71 69 76 81 82 72 67 62 52 38 19 36 65 79 78 76 76 77 75 72 73 72 72 69 68 67 66
187 194 196 196 199 202 189 192 200 202 203 196 198 214 212 210 203 194 191 192 195 198 188 192 184 183 188 198 169 169 155 148 155 164 149 147 147 154 149 140 140 137 138 130 137 135 129 123 115 106 96 90 87 85 81 83 80 72 68 64 69 70 72 70 68 67 58 43 25 24 50 82 80 81 80 79 78 76 74 75 74 74 72 69 67
192 201 189 190 198 205 199 201 198 199 203 203 189 197 212 222 211 195 198 198 195 201 194 194 190 185 194 190 182 175 161 160 167 172 159 162 163 164 153 148 149 149 148 144 141 135 120 110 95 89 85 84 82 79 77 76 76 76 70 65 66 69 69 67 69 68 60 48 30 20 33 44 83 85 83 82 79 77 75 74 74 75 77 72 66
185 192 192 194 189 195 188 181 203 206 196 208 207 198 201 218 224 209 206 196 187 195 201 203 189 192 191 198 196 183 174 165 173 174 173 173 175 167 157 157 159 156 153 146 143 130 116 106 99 92 90 84 81 78 79 79 78 73 69 65 65 68 68 69 68 66 61 53 41 18 30 41 49 71 83 82 83 80 80 77 75 74 71 70 69
200 195 194 193 181 186 183 187 196 207 201 198 212 213 203 206 212 219 223 191 200 196 198 200 199 189 190 192 196 202 188 180 173 176 177 178 184 172 164 167 165 158 149 149 143 127 120 117 118 114 107 100 91 84 78 75 78 74 74 70 70 71 71 71 68 65 64 59 47 28 21 40 57 65 65 78 81 82 80 80 78 75 75 73 70
205 200 195 195 186 187 190 190 201 207 216 216 216 216 209 210 217 215 229 206 210 200 191 208 206 193 182 186 199 206 198 191 182 178 172 171 190 166 177 171 166 157 150 149 141 132 131 130 121 120 113 104 96 89 87 78 74 72 72 75 73 75 74 73 72 72 67 61 51 41 31 25 55 71 70 74 77 81 84 84 85 84 76 74 72
201 204 201 198 196 189 192 195 202 209 213 218 222 219 216 209 211 222 202 206 209 201 194 200 212 206 187 187 195 209 200 198 182 177 176 170 181 177 182 170 164 157 151 143 144 140 134 130 131 130 125 113 105 100 98 91 83 77 73 75 76 79 77 75 78 79 77 72 70 62 39 35 30 58 76 77 79 77 77 78 79 76 77 75 73
202 205 206 201 201 202 196 199 201 195 199 207 210 226 225 219 200 212 219 202 215 207 196 201 208 217 200 190 194 203 201 198 180 164 174 175 174 186 183 172 165 149 143 135 136 141 136 131 130 121 117 118 115 110 105 100 93 84 78 75 74 77 80 82 80 79 84 89 88 77 67 47 38 31 47 75 73 75 74 71 72 75 77 76 74
207 205 203 199 205 203 206 206 208 208 205 212 214 212 224 228 217 202 220 210 210 221 208 192 197 203 207 194 195 202 197 200 192 170 170 178 178 181 169 164 141 123 120 137 144 142 133 127 121 123 117 114 110 109 108 104 102 93 84 79 80 75 78 84 85 85 90 94 97 95 89 74 56 38 32 37 75 75 75 71 70 71 71 74 77
198 198 201 203 199 199 199 204 205 210 211 213 212 213 212 223 223 215 201 212 213 200 220 209 190 196 201 195 194 205 198 191 187 180 171 170 176 182 175 157 144 143 142 149 158 150 136 129 129 125 119 121 123 124 117 110 107 102 90 81 79 80 77 76 74 80 85 89 84 89 90 99 86 69 46 37 38 71 73 73 74 75 72 71 72
192 195 198 199 195 191 185 195 192 204 202 211 214 217 217 217 224 218 212 201 205 218 202 207 206 194 187 190 188 206 209 187 171 174 191 168 165 178 181 169 151 152 157 152 151 143 139 135 136 128 130 122 122 118 114 109 108 102 97 93 87 89 87 86 85 80 79 76 77 70 76 74 89 103 91 64 41 40 62 73 74 71 68 67 67
197 193 192 191 196 190 181 191 188 199 201 206 213 217 222 224 225 228 215 170 185 227 225 196 185 182 188 187 184 195 209 196 178 176 187 175 178 176 176 159 157 149 154 140 144 146 143 132 132 136 131 129 127 120 113 110 105 100 94 92 91 89 88 80 74 71 67 70 67 66 63 61 60 74 84 82 72 57 61 71 70 67 65 63 62
196 194 190 189 196 190 184 193 193 196 203 203 208 217 222 225 225 216 216 183 180 214 219 209 193 187 184 180 186 184 195 186 171 178 167 166 167 167 159 157 150 151 157 151 147 161 143 128 125 131 133 134 130 121 113 108 106 100 96 91 85 85 78 77 77 80 70 70 70 74 71 67 60 54 63 80 93 83 65 64 56 55 59 62 64
197 197 194 191 194 191 188 193 195 194 198 201 200 203 213 220 221 217 201 209 185 211 202 189 189 187 183 183 185 174 188 180 177 183 182 169 170 146 145 152 148 149 150 147 134 138 147 137 126 129 130 128 133 131 120 111 107 103 96 88 84 79 77 78 79 76 73 70 67 62 64 62 57 54 58 62 65 80 90 84 76 62 58 65 67
196 197 195 193 191 191 188 187 193 193 194 194 188 193 205 214 224 215 192 212 216 217 201 184 185 181 183 181 179 173 186 182 177 182 169 142 147 140 141 151 154 148 146 142 137 150 158 147 130 126 116 117 130 132 123 116 107 101 95 86 77 72 71 71 74 73 73 69 66 65 63 63 57 54 54 57 60 55 55 57 65 80 64 62 62
193 194 196 193 191 191 188 186 192 192 189 184 180 186 199 206 207 206 199 206 212 209 189 196 183 181 180 169 182 179 181 180 174 164 161 159 152 158 158 158 157 158 153 150 152 157 160 133 123 127 116 97 102 125 124 116 105 98 93 83 73 72 69 70 73 80 86 94 95 95 85 87 76 64 61 58 55 49 51 56 63 62 73 66 64
194 193 194 195 195 192 186 191 188 189 186 180 176 182 195 202 209 209 207 210 201 189 196 204 198 188 171 180 180 182 179 175 176 167 161 151 149 145 157 167 168 166 164 165 163 145 135 123 121 127 128 121 118 141 131 124 119 104 98 94 87 72 70 73 83 82 93 111 116 109 108 99 89 76 64 62 55 50 48 47 52 53 51 48 69
198 196 195 195 194 193 191 190 184 189 190 186 175 185 198 199 195 205 203 204 172 178 187 187 201 185 174 176 178 184 180 176 175 171 156 149 148 152 155 165 168 174 171 160 154 142 138 138 137 107 103 130 140 160 153 130 125 144 139 129 104 91 72 76 82 96 77 78 85 96 99 99 93 87 93 76 58 50 46 47 46 49 46 51 51
196 199 199 195 193 194 195 191 188 187 190 187 181 186 194 205 207 202 196 187 161 151 170 157 149 166 161 163 152 167 172 173 176 177 166 164 160 159 163 157 171 168 161 156 152 152 154 157 159 143 142 110 126 165 168 166 135 137 124 117 143 146 151 161 132 133 117 97 105 98 86 89 75 85 83 82 70 54 45 48 52 48 44 45 46
198 199 198 199 196 198 195 192 190 187 187 187 186 183 188 203 209 215 195 182 168 123 100 83 124 141 166 167 182 162 157 167 166 168 173 177 170 161 160 166 171 172 166 154 161 161 160 164 158 151 143 134 151 179 203 175 146 143 152 183 160 163 161 209 179 153 132 107 108 133 122 116 124 124 106 81 68 67 60 52 54 50 48 46 40
198 198 197 196 198 198 196 194 190 187 186 181 182 184 174 129 102 83 83 83 81 142 155 188 184 164 148 170 185 126 132 150 158 166 171 180 173 172 173 174 170 170 165 167 165 172 169 170 164 158 171 151 160 165 195 186 171 182 135 141 143 208 219 162 148 164 163 170 168 107 129 167 165 173 121 98 101 97 84 68 63 58 53 54 47
199 200 196 198 196 195 194 193 191 185 186 183 181 183 159 181 158 166 176 182 184 181 195 193 174 179 184 153 141 148 135 155 156 157 169 173 171 175 172 172 170 168 169 173 157 147 160 161 170 170 174 169 151 160 174 194 195 201 246 15 24 183 169 139 149 177 166 210 149 179 186 208 178 172 160 151 159 138 120 104 80 71 62 56 65
201 192 193 198 198 195 194 192 189 183 184 177 178 178 184 196 186 195 190 189 195 193 182 155 160 171 167 163 143 134 156 139 118 164 137 179 172 168 172 173 167 166 159 156 165 172 174 177 169 175 180 165 157 159 172 173 184 227 207 180 80 299 123 142 192 110 174 191 198 192 205 203 207 203 180 181 172 161 152 141 122 99 81 64 52
188 186 191 196 196 196 191 189 186 182 177 175 180 184 195 194 187 198 199 201 206 185 166 166 170 163 162 150 142 167 145 145 143 131 145 169 169 170 170 171 171 169 164 170 169 173 177 187 187 180 175 176 173 167 171 170 182 195 182 173 219 284 159 205 164 168 152 158 183 183 199 184 203 212 198 188 187 177 157 145 146 153 101 76 29
186 186 190 190 194 195 192 188 188 182 178 177 174 184 191 190 187 195 204 208 206 200 166 162 160 147 147 148 163 150 141 121 125 124 130 159 170 175 176 169 172 178 183 176 175 177 181 180 185 187 181 184 186 176 169 179 188 186 157 193 191 192 173 223 183 212 144 151 158 175 179 175 218 219 203 189 186 160 167 149 137 131 116 92 77
181 184 185 187 190 192 194 191 195 187 182 176 170 175 180 184 196 197 205 203 185 167 162 156 154 154 158 161 160 154 163 159 139 116 138 116 162 180 185 183 178 171 182 186 174 176 183 190 189 189 180 186 189 187 184 183 187 178 170 166 176 173 169 177 205 204 162 183 160 182 178 169 187 203 189 188 178 167 161 147 154 162 188 132 80
176 181 184 190 189 193 194 195 194 190 183 179 175 178 180 186 194 199 205 211 195 196 167 159 146 163 170 169 173 166 163 162 151 152 148 149 144 171 184 186 176 173 182 188 179 177 184 190 191 195 194 191 187 187 187 186 179 183 169 182 187 182 175 187 190 189 173 161 120 149 157 178 177 168 181 182 172 179 167 168 174 174 183 182 138